Weather History for KGON - October, 2010

Change the Weather History Date:

Sunday, October 31, 2010

  Actual Average Record
Temperature  
Mean Temperature 50 °F -  
Max Temperature 61 °F 56 °F 70 °F (1982)
Min Temperature 41 °F 36 °F 22 °F (1966)
Degree Days  
Heating Degree Days 14    
Moisture  
Dew Point 33 °F    
Average Humidity 49    
Maximum Humidity 62    
Minimum Humidity 28    
Precipitation  
Precipitation 0.00 in - - ()
Sea Level Pressure  
Sea Level Pressure 29.81 in    
Wind  
Wind Speed 12 mph (WNW)    
Max Wind Speed 22 mph    
Max Gust Speed 31 mph    
Visibility 10 miles    
Events      
Averages and records for this station are not official NWS values.
T = Trace of Precipitation, MM = Missing Value Source: NWS Daily Summary

Daily Weather History Graph

Daily Weather History Graph

Search for Another Location

Airport or City:

Trip Planner

Search our weather history database for the weather conditions in past years. The results will help you decide how hot, cold, wet, or windy it might be!

Date:

Astronomy

Oct. 31, 2010 Rise Set
Actual Time 7:18 AM EDT 5:44 PM EDT
Civil Twilight 6:49 AM EDT 6:13 PM EDT
Nautical Twilight 6:17 AM EDT 6:45 PM EDT
Astronomical Twilight 5:44 AM EDT 7:17 PM EDT
Moon 12:36 AM EDT (10/31) 2:23 PM EDT (10/31)
Length of Visible Light 11h 23m
Length of Day
10h 26m
Last Quarter, 37% of the Moon is Illuminated
Oct 31
Last Quarter
Nov 6
New
Nov 13
First Quarter
Nov 21
Full
Nov 28
Last Quarter

Hourly Weather History & Observations

Time (EDT) Temp. Windchill Dew Point Humidity Pressure Visibility Wind Dir Wind Speed Gust Speed Precip Events Conditions
12:56 AM 55.9 °F - 39.0 °F 53% 29.74 in 10.0 mi WSW 13.8 mph 24.2 mph N/A   Clear
1:56 AM 55.9 °F - 39.9 °F 55% 29.71 in 10.0 mi WSW 13.8 mph 21.9 mph N/A   Clear
2:56 AM 55.0 °F - 42.1 °F 62% 29.70 in 10.0 mi WSW 13.8 mph 23.0 mph N/A   Clear
3:56 AM 55.0 °F - 42.1 °F 62% 29.68 in 10.0 mi West 8.1 mph - N/A   Clear
4:56 AM 55.0 °F - 39.9 °F 57% 29.68 in 10.0 mi West 11.5 mph - N/A   Clear
5:56 AM 53.1 °F - 37.0 °F 55% 29.69 in 10.0 mi West 10.4 mph - N/A   Clear
6:56 AM 53.1 °F - 36.0 °F 52% 29.69 in 10.0 mi West 10.4 mph - N/A   Mostly Cloudy
7:56 AM 51.1 °F - 36.0 °F 56% 29.70 in 10.0 mi WNW 8.1 mph - N/A   Partly Cloudy
8:56 AM 51.1 °F - 36.0 °F 56% 29.72 in 10.0 mi NW 5.8 mph - N/A   Clear
9:56 AM 57.0 °F - 34.0 °F 42% 29.72 in 10.0 mi WNW 9.2 mph - N/A   Clear
10:56 AM 57.9 °F - 33.1 °F 39% 29.73 in 10.0 mi WNW 11.5 mph - N/A   Overcast
11:56 AM 60.1 °F - 33.1 °F 36% 29.73 in 10.0 mi NW 5.8 mph - N/A   Partly Cloudy
12:56 PM 60.1 °F - 33.1 °F 36% 29.72 in 10.0 mi NW 16.1 mph 25.3 mph N/A   Partly Cloudy
1:56 PM 60.1 °F - 34.0 °F 38% 29.75 in 10.0 mi WNW 20.7 mph 25.3 mph N/A   Scattered Clouds
2:56 PM 57.9 °F - 28.0 °F 32% 29.77 in 10.0 mi WNW 19.6 mph 27.6 mph N/A   Scattered Clouds
3:56 PM 57.0 °F - 25.0 °F 29% 29.81 in 10.0 mi NW 19.6 mph 26.5 mph N/A   Scattered Clouds
4:56 PM 53.6 °F - 21.2 °F 28% 29.86 in 10.0 mi WNW 21.9 mph 31.1 mph N/A   Partly Cloudy
5:56 PM 48.9 °F - 28.0 °F 44% 29.91 in 10.0 mi NNW 13.8 mph 23.0 mph N/A   Scattered Clouds
6:56 PM 46.0 °F 41.0 °F 26.1 °F 46% 29.95 in 10.0 mi NNW 10.4 mph 16.1 mph N/A   Clear
7:56 PM 44.1 °F 40.1 °F 27.0 °F 51% 29.99 in 10.0 mi NNW 6.9 mph - N/A   Clear
8:56 PM 43.0 °F 38.8 °F 27.0 °F 53% 30.03 in 10.0 mi NW 6.9 mph - N/A   Clear
9:56 PM 42.1 °F 37.7 °F 28.0 °F 58% 30.05 in 10.0 mi NNW 6.9 mph - N/A   Partly Cloudy
10:56 PM 41.0 °F 36.4 °F 28.9 °F 62% 30.08 in 10.0 mi NW 6.9 mph - N/A   Clear
11:56 PM 41.0 °F 35.8 °F 28.9 °F 62% 30.09 in 10.0 mi NW 8.1 mph - N/A   Clear